TimePST,TemperatureF,Dew PointF,Humidity,Sea Level PressureIn,VisibilityMPH,Wind Direction,Wind SpeedMPH,Gust SpeedMPH,PrecipitationIn,Events,Conditions,WindDirDegrees,DateUTC
12:53 AM,48.0,44.1,86,29.62,6.0,East,17.3,26.5,0.16,Rain,Rain,80,2012-12-04 08:53:00
1:36 AM,48.2,44.6,87,29.62,3.0,East,16.1,24.2,0.07,Rain,Rain,80,2012-12-04 09:36:00
1:53 AM,48.0,45.0,89,29.63,3.0,East,17.3,23.0,0.09,Rain,Light Rain,90,2012-12-04 09:53:00
2:53 AM,48.9,46.0,90,29.67,5.0,East,6.9,-,0.04,Rain,Light Rain,100,2012-12-04 10:53:00
3:53 AM,48.9,46.9,93,29.69,4.0,ENE,4.6,-,0.01,Rain,Light Rain,60,2012-12-04 11:53:00
4:08 AM,48.2,46.4,93,29.70,5.0,Calm,Calm,-,0.00,Rain,Light Rain,0,2012-12-04 12:08:00
4:39 AM,48.2,46.4,93,29.71,7.0,East,6.9,-,0.01,Rain,Light Rain,90,2012-12-04 12:39:00
4:53 AM,48.0,46.0,93,29.71,10.0,East,10.4,-,0.01,Rain,Light Rain,90,2012-12-04 12:53:00
5:22 AM,48.2,46.4,93,29.72,10.0,East,11.5,-,0.00,Rain,Light Rain,80,2012-12-04 13:22:00
5:53 AM,48.0,45.0,89,29.73,10.0,East,9.2,-,0.00,,Overcast,80,2012-12-04 13:53:00
6:29 AM,48.2,46.4,93,29.74,10.0,ENE,5.8,-,N/A,,Overcast,60,2012-12-04 14:29:00
6:53 AM,48.9,46.9,93,29.75,10.0,ENE,5.8,-,N/A,,Overcast,60,2012-12-04 14:53:00
7:53 AM,50.0,46.9,89,29.77,10.0,Variable,3.5,-,N/A,,Overcast,0,2012-12-04 15:53:00
8:06 AM,57.2,51.8,82,29.77,10.0,SSW,9.2,-,N/A,,Overcast,210,2012-12-04 16:06:00
8:53 AM,57.9,51.1,78,29.80,10.0,SSW,6.9,-,N/A,,Overcast,210,2012-12-04 16:53:00
9:53 AM,57.9,52.0,81,29.82,10.0,South,8.1,-,N/A,,Overcast,190,2012-12-04 17:53:00
10:53 AM,57.9,52.0,81,29.82,10.0,SSW,6.9,-,0.00,,Overcast,210,2012-12-04 18:53:00
11:03 AM,57.2,51.8,82,29.83,10.0,SW,13.8,-,N/A,,Overcast,230,2012-12-04 19:03:00
11:42 AM,55.4,53.6,94,29.82,2.5,Variable,4.6,-,0.00,Rain,Rain,0,2012-12-04 19:42:00
11:46 AM,55.4,53.6,94,29.82,3.0,Calm,Calm,-,0.00,Rain,Light Rain,0,2012-12-04 19:46:00
11:53 AM,55.0,53.1,93,29.81,3.0,Calm,Calm,-,N/A,Rain,Light Rain,0,2012-12-04 19:53:00
12:51 PM,55.4,53.6,94,29.78,10.0,Calm,Calm,-,N/A,Rain,Light Rain,0,2012-12-04 20:51:00
12:53 PM,55.9,53.1,90,29.78,10.0,East,3.5,-,N/A,Rain,Light Rain,100,2012-12-04 20:53:00
1:53 PM,57.9,53.1,84,29.79,8.0,SW,9.2,-,N/A,,Overcast,230,2012-12-04 21:53:00
2:01 PM,57.2,53.6,88,29.79,7.0,WNW,5.8,-,N/A,,Overcast,300,2012-12-04 22:01:00
2:07 PM,53.6,51.8,94,29.79,2.5,WNW,5.8,-,0.02,Rain,Rain,300,2012-12-04 22:07:00
2:09 PM,53.6,51.8,94,29.79,3.0,Variable,4.6,-,0.03,Rain,Rain,0,2012-12-04 22:09:00
2:12 PM,53.6,51.8,94,29.79,2.0,WNW,4.6,-,0.07,Rain,Heavy Rain,290,2012-12-04 22:12:00
2:53 PM,54.0,52.0,93,29.80,3.0,West,6.9,-,0.13,Rain,Light Rain,260,2012-12-04 22:53:00
3:21 PM,53.6,51.8,94,29.80,8.0,WSW,3.5,-,0.01,,Overcast,250,2012-12-04 23:21:00
3:53 PM,53.1,51.1,93,29.80,4.0,Variable,3.5,-,0.05,Rain,Light Rain,0,2012-12-04 23:53:00
4:03 PM,53.6,48.2,82,29.80,4.0,WNW,5.8,-,0.01,Rain,Light Rain,300,2012-12-05 00:03:00
4:22 PM,51.8,46.4,82,29.80,4.0,NW,5.8,-,0.03,Rain,Rain,310,2012-12-05 00:22:00
4:53 PM,51.1,46.9,86,29.81,5.0,NW,3.5,-,0.09,Rain,Light Rain,310,2012-12-05 00:53:00
5:04 PM,51.8,46.4,82,29.81,5.0,Calm,Calm,-,0.02,Rain,Rain,0,2012-12-05 01:04:00
5:46 PM,50.0,48.2,94,29.80,5.0,ESE,3.5,-,0.04,Rain,Light Rain,110,2012-12-05 01:46:00
5:53 PM,50.0,48.0,93,29.80,3.0,ESE,3.5,-,0.06,Rain,Rain,110,2012-12-05 01:53:00
6:53 PM,50.0,48.0,93,29.80,2.5,Calm,Calm,-,0.13,Rain,Rain,0,2012-12-05 02:53:00
6:56 PM,50.0,48.2,94,29.80,3.0,Calm,Calm,-,0.01,Rain,Heavy Rain,0,2012-12-05 02:56:00
7:40 PM,50.0,48.2,94,29.81,5.0,Calm,Calm,-,0.12,Rain,Light Rain,0,2012-12-05 03:40:00
7:53 PM,50.0,48.0,93,29.80,4.0,East,3.5,-,0.13,Rain,Light Rain,100,2012-12-05 03:53:00
8:53 PM,50.0,48.0,93,29.84,7.0,Calm,Calm,-,0.03,Rain,Light Rain,0,2012-12-05 04:53:00
9:07 PM,50.0,48.2,94,29.84,4.0,Calm,Calm,-,0.01,Rain,Light Rain,0,2012-12-05 05:07:00
9:19 PM,50.0,48.2,94,29.85,8.0,Calm,Calm,-,0.01,Rain,Light Rain,0,2012-12-05 05:19:00
9:45 PM,50.0,48.2,94,29.86,4.0,Calm,Calm,-,0.05,Rain,Rain,0,2012-12-05 05:45:00
9:53 PM,50.0,48.0,93,29.87,7.0,Calm,Calm,-,0.05,Rain,Light Rain,0,2012-12-05 05:53:00
10:37 PM,50.0,48.2,94,29.90,6.0,Calm,Calm,-,0.00,Rain,Light Rain,0,2012-12-05 06:37:00
10:53 PM,50.0,48.0,93,29.91,9.0,WSW,3.5,-,0.00,Rain,Light Rain,240,2012-12-05 06:53:00
11:16 PM,51.8,46.4,82,29.93,10.0,SW,8.1,-,0.00,,Overcast,220,2012-12-05 07:16:00
11:53 PM,50.0,45.0,83,29.96,10.0,SSW,9.2,-,0.00,,Overcast,210,2012-12-05 07:53:00